Manchester, NH

10:29 AM EST on December 07, 2016 (GMT -0500)
Manchester

Weather History for KMHT - September, 2012

Change the Weather History Date:

Wednesday, September 12, 2012

  Actual Average Record
Temperature  
Mean Temperature 62 °F 64 °F  
Max Temperature 78 °F 74 °F 93 °F (1983)
Min Temperature 48 °F 54 °F 34 °F (1958)
Degree Days  
Heating Degree Days 2 3  
Month to date heating degree days 21  
Since 1 July heating degree days 39  
Cooling Degree Days 0 2  
Month to date cooling degree days 35  
Year to date cooling degree days 621  
Growing Degree Days 12 (Base 50)    
Moisture  
Dew Point 48 °F    
Average Humidity 62    
Maximum Humidity 90    
Minimum Humidity 31    
Precipitation  
Precipitation 0.00 in 0.13 in 3.72 in (1960)
Month to date precipitation 1.40  
Year to date precipitation 30.66  
Snow  
Snow 0.00 in - - ()
Month to date snowfall  
Since 1 July snowfall  
Snow Depth -    
Sea Level Pressure  
Sea Level Pressure 30.34 in    
Wind  
Wind Speed 2 mph (South)    
Max Wind Speed 9 mph    
Max Gust Speed -    
Visibility 10 miles    
Events      
T = Trace of Precipitation, MM = Missing Value Source: NWS Daily Summary

Daily Weather History Graph

Daily Weather History Graph

Search for Another Location

Airport or City:

Trip Planner

Search our weather history database for the weather conditions in past years. The results will help you decide how hot, cold, wet, or windy it might be!

Date:

Astronomy

Sep. 12, 2012 Rise Set
Actual Time 6:22 AM EDT 7:00 PM EDT
Civil Twilight 5:54 AM EDT 7:28 PM EDT
Nautical Twilight 5:20 AM EDT 8:02 PM EDT
Astronomical Twilight 4:45 AM EDT 8:37 PM EDT
Moon 2:32 AM EDT (9/12) 4:49 PM EDT (9/12)
Length of Visible Light 13h 34m
Length of Day
12h 37m
Waning Crescent, 14% of the Moon is Illuminated
Sep 12
Waning Crescent
Sep 15
New
Sep 22
First Quarter
Sep 29
Full
Oct 8
Last Quarter

Hourly Weather History & Observations

Time (EDT) Temp. Dew Point Humidity Pressure Visibility Wind Dir Wind Speed Gust Speed Precip Events Conditions
12:53 AM 53.1 °F 48.9 °F 86% 30.30 in 10.0 mi Calm Calm - N/A   Clear
1:53 AM 51.1 °F 46.9 °F 86% 30.30 in 10.0 mi Calm Calm - N/A   Clear
2:53 AM 50.0 °F 46.0 °F 86% 30.31 in 10.0 mi Calm Calm - N/A   Clear
3:53 AM 48.9 °F 46.0 °F 90% 30.31 in 10.0 mi Calm Calm - N/A   Clear
4:53 AM 48.9 °F 45.0 °F 86% 30.33 in 10.0 mi Calm Calm - N/A   Clear
5:53 AM 50.0 °F 46.0 °F 86% 30.34 in 10.0 mi Calm Calm - N/A   Clear
6:53 AM 50.0 °F 45.0 °F 83% 30.36 in 10.0 mi Calm Calm - N/A   Clear
7:53 AM 52.0 °F 46.9 °F 83% 30.36 in 10.0 mi NNW 3.5 mph - N/A   Clear
8:53 AM 57.0 °F 46.9 °F 69% 30.37 in 10.0 mi North 3.5 mph - N/A   Clear
9:53 AM 63.0 °F 46.9 °F 56% 30.38 in 10.0 mi NNW 4.6 mph - N/A   Clear
10:53 AM 68.0 °F 48.0 °F 49% 30.38 in 10.0 mi Calm Calm - N/A   Clear
11:53 AM 71.1 °F 46.9 °F 42% 30.37 in 10.0 mi SE 3.5 mph - N/A   Clear
12:53 PM 73.9 °F 43.0 °F 33% 30.36 in 10.0 mi SSW 9.2 mph - N/A   Clear
1:53 PM 75.0 °F 43.0 °F 32% 30.35 in 10.0 mi Calm Calm - N/A   Clear
2:53 PM 77.0 °F 44.1 °F 31% 30.34 in 10.0 mi WSW 4.6 mph - N/A   Clear
3:53 PM 77.0 °F 46.0 °F 33% 30.32 in 10.0 mi Variable 5.8 mph - N/A   Clear
4:53 PM 77.0 °F 46.9 °F 34% 30.32 in 10.0 mi SSE 4.6 mph - N/A   Clear
5:53 PM 75.9 °F 48.9 °F 38% 30.32 in 10.0 mi South 5.8 mph - N/A   Clear
6:53 PM 73.9 °F 51.1 °F 45% 30.33 in 10.0 mi SSE 5.8 mph - N/A   Clear
7:53 PM 69.1 °F 53.1 °F 57% 30.33 in 10.0 mi SSE 4.6 mph - N/A   Clear
8:53 PM 66.2 °F 53.6 °F 64% 30.31 in 10.0 mi SSE 4.6 mph - N/A   Clear
9:53 PM 64.0 °F 52.0 °F 65% 30.36 in 10.0 mi Calm Calm - N/A   Clear
10:53 PM 63.0 °F 53.1 °F 70% 30.35 in 10.0 mi Calm Calm - N/A   Clear
11:53 PM 60.1 °F 54.0 °F 80% 30.35 in 10.0 mi SSW 3.5 mph - N/A   Clear